ASA1461 KLAX-CYVR

Flight info

Callsign ASA1461
Flight time 1h 30m
Altitude 36000
Route SUMMR2 SCTRR DCT SNS J126 SAC DCT LMT J65 SEA DCT PAE GRIZZ7
Aircraft B738/M-SDE2E3FGHIRWXY/LB1

Departure

Time 2026-05-06 16:29
Airport Los Angeles International Airport (KLAX)

Arrival

Time 2026-05-06 18:00
Airport Vancouver International Airport (CYVR)
Time Latitude Longitude Altitude Speed Heading
2026-05-06 16:00 33.94167 -118.39779 114 ft 0 kts 84°
2026-05-06 16:22 33.94167 -118.39780 114 ft 0 kts 84°
2026-05-06 16:22 33.94165 -118.39797 114 ft 2 kts 84°
2026-05-06 16:22 33.94163 -118.39816 114 ft 2 kts 84°
2026-05-06 16:23 33.94162 -118.39832 114 ft 1 kts 111°
2026-05-06 16:23 33.94172 -118.39843 115 ft 1 kts 166°
2026-05-06 16:23 33.94178 -118.39844 115 ft 1 kts 176°
2026-05-06 16:23 33.94180 -118.39844 115 ft 0 kts 174°
2026-05-06 16:25 33.94171 -118.39843 115 ft 3 kts 174°
2026-05-06 16:25 33.94143 -118.39839 115 ft 3 kts 174°
2026-05-06 16:25 33.94130 -118.39838 114 ft 0 kts 174°
2026-05-06 16:25 33.94097 -118.39832 114 ft 8 kts 173°
2026-05-06 16:26 33.94015 -118.39826 114 ft 14 kts 175°
2026-05-06 16:26 33.93916 -118.39772 114 ft 17 kts 119°
2026-05-06 16:26 33.93918 -118.39617 111 ft 20 kts 83°
2026-05-06 16:26 33.93937 -118.39429 110 ft 25 kts 83°
2026-05-06 16:27 33.93961 -118.39191 108 ft 31 kts 83°
2026-05-06 16:27 33.93991 -118.38902 105 ft 36 kts 83°
2026-05-06 16:27 33.94020 -118.38608 105 ft 34 kts 82°
2026-05-06 16:27 33.94050 -118.38325 101 ft 32 kts 84°
2026-05-06 16:28 33.94074 -118.38093 101 ft 19 kts 83°
2026-05-06 16:28 33.94064 -118.38022 101 ft 10 kts 132°
2026-05-06 16:28 33.94008 -118.38007 101 ft 14 kts 197°
2026-05-06 16:28 33.93972 -118.38139 101 ft 11 kts 264°
2026-05-06 16:29 33.93963 -118.38233 101 ft 12 kts 263°
2026-05-06 16:29 33.93916 -118.38687 105 ft 107 kts 263°
2026-05-06 16:29 33.93787 -118.39927 249 ft 179 kts 264°
2026-05-06 16:29 33.93656 -118.41413 1292 ft 192 kts 264°
2026-05-06 16:30 33.93488 -118.43179 1919 ft 228 kts 262°
2026-05-06 16:30 33.93415 -118.43813 2202 ft 232 kts 262°
2026-05-06 16:30 33.93198 -118.45786 2893 ft 248 kts 263°
2026-05-06 16:30 33.93006 -118.47997 3437 ft 280 kts 264°
2026-05-06 16:31 33.92747 -118.51128 4933 ft 289 kts 264°
2026-05-06 16:31 33.92420 -118.55076 5003 ft 279 kts 264°
2026-05-06 16:31 33.92227 -118.57406 5000 ft 279 kts 264°
2026-05-06 16:32 33.91969 -118.60509 5000 ft 280 kts 264°
2026-05-06 16:32 33.91746 -118.63609 4999 ft 280 kts 268°
2026-05-06 16:32 33.91738 -118.65970 5000 ft 280 kts 270°
2026-05-06 16:32 33.91749 -118.68299 5000 ft 280 kts 270°
2026-05-06 16:33 33.91745 -118.70631 5000 ft 280 kts 270°
2026-05-06 16:33 33.91738 -118.72996 5000 ft 280 kts 270°
2026-05-06 16:33 33.91730 -118.75343 5000 ft 280 kts 270°
2026-05-06 16:34 33.91727 -118.76112 5000 ft 280 kts 270°
2026-05-06 16:34 33.91805 -118.86981 5000 ft 278 kts 273°
2026-05-06 16:35 33.91853 -118.88531 5000 ft 277 kts 273°
2026-05-06 16:35 33.91949 -118.91705 5246 ft 302 kts 273°
2026-05-06 16:35 33.92020 -118.94157 6754 ft 293 kts 273°
2026-05-06 16:35 33.92091 -118.96573 7989 ft 295 kts 273°
2026-05-06 16:36 33.92163 -118.99027 9112 ft 299 kts 273°
2026-05-06 16:36 33.92421 -119.01491 10162 ft 302 kts 288°
2026-05-06 16:36 33.93309 -119.03777 11216 ft 303 kts 304°
2026-05-06 16:36 33.94445 -119.05905 12189 ft 309 kts 305°
2026-05-06 16:37 33.95583 -119.08108 13166 ft 315 kts 304°
2026-05-06 16:37 33.96733 -119.10355 14118 ft 319 kts 304°
2026-05-06 16:37 33.97897 -119.12614 15040 ft 324 kts 304°
2026-05-06 16:37 33.99080 -119.14908 15937 ft 329 kts 304°
2026-05-06 16:38 34.00389 -119.17183 16811 ft 333 kts 310°
2026-05-06 16:38 34.01939 -119.19226 17652 ft 335 kts 320°
2026-05-06 16:38 34.03765 -119.20971 18477 ft 338 kts 327°
2026-05-06 16:38 34.05686 -119.22604 19273 ft 343 kts 327°
2026-05-06 16:39 34.07618 -119.24277 20035 ft 347 kts 326°
2026-05-06 16:39 34.09586 -119.25988 20783 ft 352 kts 326°
2026-05-06 16:39 34.11567 -119.27701 21507 ft 356 kts 326°
2026-05-06 16:39 34.13588 -119.29444 22208 ft 360 kts 326°
2026-05-06 16:40 34.15622 -119.31199 22875 ft 364 kts 326°
2026-05-06 16:40 34.17693 -119.32986 23537 ft 368 kts 326°
2026-05-06 16:40 34.19767 -119.34776 24173 ft 372 kts 326°
2026-05-06 16:40 34.21871 -119.36593 24782 ft 376 kts 326°
2026-05-06 16:41 34.24003 -119.38434 25421 ft 378 kts 326°
2026-05-06 16:41 34.26117 -119.40262 26129 ft 378 kts 326°
2026-05-06 16:41 34.28241 -119.42108 26826 ft 377 kts 326°
2026-05-06 16:41 34.30358 -119.43959 27517 ft 376 kts 325°
2026-05-06 16:42 34.32456 -119.45793 28146 ft 376 kts 325°
2026-05-06 16:42 34.34565 -119.47626 28842 ft 373 kts 326°
2026-05-06 16:42 34.36659 -119.49425 29539 ft 370 kts 326°
2026-05-06 16:42 34.38757 -119.51215 30097 ft 370 kts 326°
2026-05-06 16:43 34.40854 -119.53001 30672 ft 369 kts 325°
2026-05-06 16:43 34.42891 -119.54823 31237 ft 369 kts 323°
2026-05-06 16:43 34.44888 -119.56741 31802 ft 367 kts 322°
2026-05-06 16:43 34.46865 -119.58668 32374 ft 365 kts 322°
2026-05-06 16:44 34.48851 -119.60572 32906 ft 364 kts 322°
2026-05-06 16:44 34.50821 -119.62436 33368 ft 364 kts 322°
2026-05-06 16:44 34.52832 -119.64339 33851 ft 363 kts 322°
2026-05-06 16:44 34.54785 -119.66201 34300 ft 363 kts 322°
2026-05-06 16:45 34.56777 -119.68092 34743 ft 363 kts 322°
2026-05-06 16:45 34.58744 -119.69952 35202 ft 361 kts 322°
2026-05-06 16:45 34.60712 -119.71816 35627 ft 361 kts 322°
2026-05-06 16:45 34.62696 -119.73700 36046 ft 360 kts 322°
2026-05-06 16:46 34.64672 -119.75575 36128 ft 366 kts 322°
2026-05-06 16:46 34.68716 -119.79351 36138 ft 366 kts 322°
2026-05-06 16:47 34.72688 -119.83070 36143 ft 362 kts 322°
2026-05-06 16:47 34.76648 -119.86862 36147 ft 363 kts 322°
2026-05-06 16:48 34.80620 -119.90621 36150 ft 364 kts 322°
2026-05-06 16:48 34.84588 -119.94369 36154 ft 362 kts 322°
2026-05-06 16:49 34.88613 -119.98186 36158 ft 375 kts 322°
2026-05-06 16:49 34.92807 -120.02203 36156 ft 395 kts 323°
2026-05-06 16:50 34.97207 -120.06403 36159 ft 413 kts 324°
2026-05-06 16:50 35.01827 -120.10812 36163 ft 429 kts 324°
2026-05-06 16:51 35.06582 -120.15379 36167 ft 443 kts 325°
2026-05-06 16:51 35.11449 -120.20084 36172 ft 455 kts 324°
2026-05-06 16:52 35.16450 -120.24938 36172 ft 461 kts 324°
2026-05-06 16:52 35.21489 -120.29643 36171 ft 459 kts 327°
2026-05-06 16:53 35.26610 -120.34240 36168 ft 458 kts 326°
2026-05-06 16:53 35.31697 -120.38927 36166 ft 459 kts 326°
2026-05-06 16:54 35.36775 -120.43604 36164 ft 459 kts 326°
2026-05-06 16:54 35.41876 -120.48245 36188 ft 459 kts 326°
2026-05-06 16:55 35.46989 -120.52933 36212 ft 458 kts 326°
2026-05-06 16:55 35.52084 -120.57632 36234 ft 459 kts 326°
2026-05-06 16:56 35.57187 -120.62213 36237 ft 457 kts 328°
2026-05-06 16:56 35.62385 -120.66739 36237 ft 458 kts 327°
2026-05-06 16:57 35.67550 -120.71278 36237 ft 458 kts 327°
2026-05-06 16:57 35.72678 -120.75832 36237 ft 458 kts 327°
2026-05-06 16:58 35.77821 -120.80433 36237 ft 459 kts 327°
2026-05-06 16:58 35.82975 -120.85051 36238 ft 458 kts 327°
2026-05-06 16:59 35.88137 -120.89634 36237 ft 459 kts 327°
2026-05-06 16:59 35.93272 -120.94196 36236 ft 458 kts 327°
2026-05-06 17:00 35.98416 -120.98792 36229 ft 457 kts 327°
2026-05-06 17:00 36.03549 -121.03411 36227 ft 458 kts 327°
2026-05-06 17:01 36.08664 -121.08036 36219 ft 457 kts 328°
2026-05-06 17:01 36.12923 -121.11848 36211 ft 456 kts 328°
2026-05-06 17:02 36.18909 -121.17161 36197 ft 455 kts 328°
2026-05-06 17:02 36.21468 -121.19473 36194 ft 454 kts 328°
2026-05-06 17:03 36.28226 -121.25616 36192 ft 455 kts 328°
2026-05-06 17:03 36.34190 -121.31005 36190 ft 453 kts 329°
2026-05-06 17:04 36.39289 -121.35590 36193 ft 455 kts 329°
2026-05-06 17:04 36.44355 -121.40176 36192 ft 454 kts 328°
2026-05-06 17:05 36.49448 -121.44855 36192 ft 454 kts 328°
2026-05-06 17:05 36.54500 -121.49465 36192 ft 454 kts 329°
2026-05-06 17:06 36.59616 -121.54063 36191 ft 455 kts 329°
2026-05-06 17:06 36.64849 -121.58275 36189 ft 447 kts 340°
2026-05-06 17:06 36.67775 -121.59473 36194 ft 438 kts 354°
2026-05-06 17:07 36.70767 -121.59898 36194 ft 435 kts
2026-05-06 17:07 36.76763 -121.59874 36193 ft 432 kts
2026-05-06 17:08 36.82741 -121.59692 36195 ft 430 kts
2026-05-06 17:08 36.88707 -121.59548 36198 ft 431 kts
2026-05-06 17:09 36.94702 -121.59401 36200 ft 433 kts
2026-05-06 17:09 37.00673 -121.59238 36201 ft 431 kts
2026-05-06 17:10 37.06663 -121.59061 36201 ft 433 kts
2026-05-06 17:10 37.12697 -121.58877 36201 ft 435 kts
2026-05-06 17:11 37.17701 -121.58745 36203 ft 434 kts
2026-05-06 17:11 37.23724 -121.58566 36207 ft 436 kts
2026-05-06 17:12 37.30761 -121.58360 36209 ft 436 kts
2026-05-06 17:12 37.36798 -121.58188 36206 ft 435 kts
2026-05-06 17:13 37.42823 -121.58008 36204 ft 435 kts
2026-05-06 17:13 37.48871 -121.57825 36201 ft 435 kts
2026-05-06 17:14 37.54881 -121.57677 36199 ft 436 kts
2026-05-06 17:14 37.60949 -121.57500 36197 ft 436 kts
2026-05-06 17:15 37.66985 -121.57328 36196 ft 435 kts
2026-05-06 17:15 37.73000 -121.57172 36197 ft 435 kts
2026-05-06 17:16 37.79030 -121.56958 36196 ft 435 kts
2026-05-06 17:16 37.85035 -121.56767 36196 ft 435 kts
2026-05-06 17:17 37.91093 -121.56615 36196 ft 435 kts
2026-05-06 17:17 37.97121 -121.56428 36193 ft 436 kts
2026-05-06 17:18 38.03112 -121.56269 36187 ft 434 kts
2026-05-06 17:18 38.09127 -121.56082 36183 ft 435 kts
2026-05-06 17:19 38.15179 -121.55903 36184 ft 435 kts
2026-05-06 17:19 38.21192 -121.55720 36187 ft 436 kts
2026-05-06 17:20 38.26240 -121.55566 36188 ft 435 kts
2026-05-06 17:20 38.29245 -121.55477 36192 ft 435 kts
2026-05-06 17:21 38.38308 -121.55202 36200 ft 435 kts
2026-05-06 17:21 38.45335 -121.55008 36201 ft 436 kts
2026-05-06 17:22 38.51394 -121.55329 36202 ft 439 kts
2026-05-06 17:22 38.57451 -121.55769 36200 ft 437 kts
2026-05-06 17:23 38.63502 -121.56132 36199 ft 438 kts
2026-05-06 17:23 38.69596 -121.56304 36197 ft 437 kts
2026-05-06 17:24 38.75636 -121.56580 36195 ft 438 kts
2026-05-06 17:24 38.80671 -121.56834 36193 ft 437 kts
2026-05-06 17:25 38.87709 -121.57175 36191 ft 436 kts
2026-05-06 17:25 38.93788 -121.57484 36194 ft 440 kts
2026-05-06 17:26 38.99917 -121.57790 36196 ft 444 kts
2026-05-06 17:26 39.06079 -121.58028 36197 ft 446 kts
2026-05-06 17:27 39.12270 -121.58271 36197 ft 446 kts
2026-05-06 17:27 39.14193 -121.58356 36197 ft 446 kts
2026-05-06 17:28 39.16228 -121.58445 36198 ft 447 kts 358°
2026-05-06 17:29 39.16467 -121.58456 36198 ft 447 kts 358°
2026-05-06 17:29 39.20115 -121.58631 36103 ft 452 kts 358°
2026-05-06 17:30 39.22142 -121.58727 36004 ft 451 kts 358°
2026-05-06 17:30 39.89196 -121.61736 35993 ft 447 kts 358°
2026-05-06 17:31 40.88337 -121.66451 35999 ft 449 kts 358°
2026-05-06 17:31 41.88069 -121.71826 35974 ft 449 kts 357°
2026-05-06 17:32 42.28369 -121.73620 36000 ft 449 kts 354°
2026-05-06 17:32 42.34542 -121.74508 35999 ft 449 kts 354°
2026-05-06 17:33 42.40765 -121.75221 36000 ft 449 kts 355°
2026-05-06 17:33 42.82822 -121.79779 36023 ft 449 kts 355°
2026-05-06 17:34 43.81736 -121.89745 36047 ft 449 kts 355°
2026-05-06 17:34 44.31649 -121.95843 35943 ft 449 kts 355°
2026-05-06 17:34 44.81542 -122.00372 36072 ft 449 kts 356°
2026-05-06 17:34 45.30837 -122.05754 35925 ft 449 kts 354°
2026-05-06 17:35 45.80786 -122.13334 36077 ft 449 kts 356°
2026-05-06 17:35 46.30188 -122.15908 35926 ft 449 kts 358°
2026-05-06 17:35 46.79850 -122.23344 36070 ft 449 kts 350°
2026-05-06 17:36 46.90237 -122.24821 35999 ft 448 kts 357°
2026-05-06 17:36 46.96446 -122.25442 36000 ft 449 kts 356°
2026-05-06 17:37 47.02637 -122.26128 36000 ft 449 kts 356°
2026-05-06 17:37 47.43494 -122.30843 36013 ft 449 kts 356°
2026-05-06 17:38 47.49743 -122.30677 36000 ft 449 kts
2026-05-06 17:38 47.55963 -122.30171 36000 ft 449 kts
2026-05-06 17:39 47.93222 -122.28050 35998 ft 449 kts 354°
2026-05-06 17:39 47.99315 -122.29847 36000 ft 449 kts 348°
2026-05-06 17:40 48.16869 -122.34998 35999 ft 449 kts 349°
2026-05-06 17:40 48.22959 -122.36755 36000 ft 449 kts 349°
2026-05-06 17:41 48.29070 -122.38541 36000 ft 449 kts 349°
2026-05-06 17:41 48.35195 -122.40332 36000 ft 449 kts 349°
2026-05-06 17:42 48.41275 -122.42116 36000 ft 449 kts 349°
2026-05-06 17:42 48.47333 -122.43896 36650 ft 421 kts 349°
2026-05-06 17:43 48.49998 -122.44669 36913 ft 415 kts 348°
2026-05-06 17:43 48.52857 -122.45438 36656 ft 420 kts 352°
2026-05-06 17:43 48.55786 -122.46135 35773 ft 434 kts 350°
2026-05-06 17:43 48.58768 -122.47048 34406 ft 447 kts 348°
2026-05-06 17:44 48.61779 -122.48037 33324 ft 450 kts 348°
2026-05-06 17:44 48.64793 -122.49275 32167 ft 454 kts 340°
2026-05-06 17:44 48.67672 -122.51059 30981 ft 457 kts 336°
2026-05-06 17:44 48.70560 -122.53127 29702 ft 461 kts 332°
2026-05-06 17:45 48.73209 -122.55685 28595 ft 458 kts 321°
2026-05-06 17:45 48.75461 -122.58976 27815 ft 449 kts 313°
2026-05-06 17:45 48.77504 -122.62476 26886 ft 443 kts 312°
2026-05-06 17:45 48.79548 -122.65949 26003 ft 437 kts 312°
2026-05-06 17:46 48.81560 -122.69315 25122 ft 431 kts 312°
2026-05-06 17:46 48.83549 -122.72680 24241 ft 425 kts 311°
2026-05-06 17:46 48.85487 -122.75997 23368 ft 419 kts 311°
2026-05-06 17:46 48.87380 -122.79256 22505 ft 414 kts 311°
2026-05-06 17:47 48.89265 -122.82516 21637 ft 408 kts 311°
2026-05-06 17:47 48.91100 -122.85701 20783 ft 403 kts 311°
2026-05-06 17:47 48.92917 -122.88867 19930 ft 398 kts 311°
2026-05-06 17:47 48.94720 -122.92017 19078 ft 393 kts 311°
2026-05-06 17:48 48.96490 -122.95118 18235 ft 388 kts 311°
2026-05-06 17:48 48.98240 -122.98187 17398 ft 383 kts 311°
2026-05-06 17:48 48.99961 -123.01211 16570 ft 378 kts 311°
2026-05-06 17:48 49.01651 -123.04188 15722 ft 375 kts 311°
2026-05-06 17:49 49.03316 -123.07125 15349 ft 357 kts 311°
2026-05-06 17:49 49.04905 -123.09925 14873 ft 339 kts 311°
2026-05-06 17:49 49.06388 -123.12605 14117 ft 325 kts 307°
2026-05-06 17:49 49.07577 -123.15414 13515 ft 310 kts 297°
2026-05-06 17:50 49.08341 -123.18423 12846 ft 299 kts 285°
2026-05-06 17:50 49.08844 -123.21388 12265 ft 289 kts 285°
2026-05-06 17:50 49.09371 -123.24332 11537 ft 285 kts 285°
2026-05-06 17:50 49.09882 -123.27178 10836 ft 281 kts 285°
2026-05-06 17:51 49.10387 -123.30054 10117 ft 278 kts 285°
2026-05-06 17:51 49.10877 -123.32855 9412 ft 275 kts 285°
2026-05-06 17:51 49.11363 -123.35637 8710 ft 272 kts 285°
2026-05-06 17:51 49.11840 -123.38380 8017 ft 269 kts 285°
2026-05-06 17:52 49.12319 -123.41135 7319 ft 266 kts 285°
2026-05-06 17:52 49.12784 -123.43817 6641 ft 264 kts 285°
2026-05-06 17:52 49.13242 -123.46458 6196 ft 252 kts 285°
2026-05-06 17:52 49.13694 -123.49078 5881 ft 260 kts 285°
2026-05-06 17:53 49.14151 -123.51723 5538 ft 257 kts 286°
2026-05-06 17:53 49.14862 -123.54200 5199 ft 253 kts 307°
2026-05-06 17:53 49.16153 -123.55929 4894 ft 248 kts 332°
2026-05-06 17:53 49.17766 -123.56717 4637 ft 242 kts 355°
2026-05-06 17:54 49.19387 -123.56554 4553 ft 229 kts 10°
2026-05-06 17:54 49.20399 -123.56198 4495 ft 221 kts 20°
2026-05-06 17:54 49.21652 -123.54977 4403 ft 210 kts 49°
2026-05-06 17:54 49.22316 -123.53059 4267 ft 202 kts 81°
2026-05-06 17:55 49.22221 -123.50276 3991 ft 195 kts 97°
2026-05-06 17:55 49.22116 -123.48909 3784 ft 195 kts 97°
2026-05-06 17:55 49.21866 -123.46195 3423 ft 192 kts 99°
2026-05-06 17:55 49.21647 -123.44189 3155 ft 189 kts 100°
2026-05-06 17:56 49.21428 -123.42222 2894 ft 187 kts 100°
2026-05-06 17:56 49.21209 -123.40256 2634 ft 186 kts 100°
2026-05-06 17:56 49.20992 -123.38326 2384 ft 181 kts 100°
2026-05-06 17:56 49.20785 -123.36481 2142 ft 175 kts 100°
2026-05-06 17:57 49.20578 -123.34638 1893 ft 174 kts 100°
2026-05-06 17:57 49.20375 -123.32838 1658 ft 174 kts 100°
2026-05-06 17:57 49.20173 -123.31045 1417 ft 165 kts 100°
2026-05-06 17:57 49.19981 -123.29352 1208 ft 161 kts 100°
2026-05-06 17:58 49.19802 -123.27769 995 ft 145 kts 100°
2026-05-06 17:58 49.19641 -123.26349 814 ft 126 kts 100°
2026-05-06 17:58 49.19492 -123.25028 652 ft 125 kts 100°
2026-05-06 17:58 49.19344 -123.23725 481 ft 124 kts 100°
2026-05-06 17:59 49.19196 -123.22428 316 ft 123 kts 100°
2026-05-06 17:59 49.19050 -123.21141 153 ft 123 kts 100°
2026-05-06 17:59 49.18909 -123.19874 21 ft 113 kts 99°
2026-05-06 17:59 49.18803 -123.18962 16 ft 55 kts 101°
2026-05-06 18:00 49.18730 -123.18596 19 ft 30 kts 131°
2026-05-06 18:00 49.18590 -123.18411 19 ft 21 kts 140°
2026-05-06 18:00 49.18523 -123.18250 19 ft 15 kts 99°
2026-05-06 18:00 49.18507 -123.18113 19 ft 11 kts 103°